DW8453 Bekkjarvik NO current weather conditions

sailwx.info

Wind from 348 at 0 knots gusting 1

Air temperature 16.1° C
Dewpoint 13.2° C

Last reported at 2014-Aug-27 14:53 UTC.
Time now 2014-Aug-27 15:10 UTC

Location: N 60°01' E 005°12'.
View on Google Maps.

See reports from other nearby stations

  
Tides and Currents Weather Stations Pressure Air Temp Water Temp Dewpoint Dewpoint Depression Visibility Wind Speed Wind Dir Waves Ship Positions
date/time (UTC)wind fromknots sea level pressurealtimeterstation pressurevisibilityair tempwater tempwave heightnotes
2014-Aug-27 14:53 348 0 gusting 1 16.1
2014-Aug-27 14:43 287 0 gusting 4 16.1
2014-Aug-27 14:33 345 0 gusting 2 16.1
2014-Aug-27 14:23 309 1 gusting 2 16.1
2014-Aug-27 14:13 358 0 gusting 2 16.1
2014-Aug-27 14:03 278 0 gusting 2 16.1
2014-Aug-27 13:53 329 1 gusting 2 16.1
2014-Aug-27 13:43 298 0 gusting 2 16.1
2014-Aug-27 13:33 272 0 gusting 1 16.1
2014-Aug-27 13:23 280 0 gusting 1 16.1
2014-Aug-27 13:13 198 16.1
2014-Aug-27 13:03 252 0 gusting 1 16.1
2014-Aug-27 12:53 001 0 gusting 2 16.1
2014-Aug-27 12:43 275 1 gusting 2 15.6
2014-Aug-27 12:33 312 0 gusting 4 15.6
2014-Aug-27 12:23 015 0 gusting 4 15.6
2014-Aug-27 12:13 334 0 gusting 1 15.6
2014-Aug-27 12:03 332 0 gusting 4 15.6
2014-Aug-27 11:53 312 1 gusting 1 15.6
2014-Aug-27 11:43 15.6
2014-Aug-27 11:33 319 0 gusting 2 15.6
2014-Aug-27 11:23 338 1 gusting 5 15.6
2014-Aug-27 11:13 193 0 gusting 1 15.6
2014-Aug-27 11:03 220 1 gusting 2 15.6
2014-Aug-27 10:53 009 1 gusting 2 15.6
2014-Aug-27 10:43 004 0 gusting 4 16.1
2014-Aug-27 10:33 304 0 gusting 1 16.7
2014-Aug-27 10:23 322 0 gusting 2 16.1
2014-Aug-27 10:13 005 0 gusting 1 16.1
2014-Aug-27 10:03 207 0 gusting 1 15.6
2014-Aug-27 09:53 347 1 gusting 1 16.1
2014-Aug-27 09:43 065 16.1
2014-Aug-27 09:33 153 1 gusting 2 16.1
2014-Aug-27 09:23 162 1 gusting 1 15.6
2014-Aug-27 09:13 144 0 gusting 1 15.0
2014-Aug-27 09:03 109 0 gusting 1 15.0
2014-Aug-27 08:53 225 0 gusting 1 14.4
2014-Aug-27 08:43 229 0 gusting 1 14.4
2014-Aug-27 08:33 105 0 gusting 1 13.9
2014-Aug-27 08:23 229 13.9
2014-Aug-27 08:13 068 0 gusting 1 13.9
2014-Aug-27 08:03 164 0 gusting 1 13.9
2014-Aug-27 07:53 154 0 gusting 1 13.9
2014-Aug-27 07:43 106 13.3
2014-Aug-27 07:33 045 13.3
2014-Aug-27 07:23 115 13.3
2014-Aug-27 07:13 202 13.3
2014-Aug-27 07:03 188 1 gusting 1 13.3
2014-Aug-27 06:53 164 1 gusting 2 12.8
2014-Aug-27 06:43 171 0 gusting 2 12.8
2014-Aug-27 06:33 121 0 gusting 1 12.8
2014-Aug-27 06:23 102 1 gusting 1 12.2
2014-Aug-27 06:13 338 11.7
2014-Aug-26 22:33 338 11.7
2014-Aug-26 22:23 338 11.7
2014-Aug-26 22:13 338 11.7
2014-Aug-26 22:03 338 11.7
2014-Aug-26 21:53 338 11.7
2014-Aug-26 21:43 338 11.7
2014-Aug-26 21:33 338 11.7
2014-Aug-26 21:23 338 11.7
2014-Aug-26 21:13 338 11.7
2014-Aug-26 21:03 338 11.7
2014-Aug-26 20:53 338 11.7
2014-Aug-26 20:43 292 12.2
2014-Aug-26 20:33 010 12.2
2014-Aug-26 20:23 336 12.2
2014-Aug-26 20:13 328 12.2
2014-Aug-26 20:03 338 12.2
2014-Aug-26 19:53 306 12.8
2014-Aug-26 19:43 342 12.8
2014-Aug-26 19:33 340 12.8
2014-Aug-26 19:23 272 13.3
2014-Aug-26 19:13 285 0 gusting 1 13.3
2014-Aug-26 19:03 338 13.3
2014-Aug-26 18:53 319 0 gusting 2 13.9
2014-Aug-26 18:43 315 13.9
2014-Aug-26 18:33 292 0 gusting 4 14.4
2014-Aug-26 18:23 315 0 gusting 4 14.4
2014-Aug-26 18:13 296 0 gusting 1 15.0
2014-Aug-26 18:03 338 0 gusting 0 15.6
2014-Aug-26 17:53 022 15.6
2014-Aug-26 17:43 180 0 gusting 0 16.7
2014-Aug-26 17:33 292 17.8
2014-Aug-26 17:23 304 0 gusting 1 18.9
2014-Aug-26 17:13 272 1 gusting 4 20.0
2014-Aug-26 17:03 270 0 gusting 1 18.3
2014-Aug-26 16:53 347 0 gusting 2 16.1
2014-Aug-26 16:43 331 0 gusting 2 15.6
2014-Aug-26 16:33 322 0 gusting 2 15.6
2014-Aug-26 16:23 325 1 gusting 4 15.6
2014-Aug-26 16:13 298 2 gusting 4 15.6
2014-Aug-26 16:03 15.6
2014-Aug-26 15:53 317 1 gusting 4 15.6
2014-Aug-26 15:43 276 1 gusting 4 15.6
2014-Aug-26 15:33 328 1 gusting 4 15.6
2014-Aug-26 15:23 309 1 gusting 6 15.6
2014-Aug-26 15:13 347 2 gusting 4 15.6
2014-Aug-26 15:03 034 1 gusting 4 15.6
2014-Aug-26 14:53 192 1 gusting 4 15.6
2014-Aug-26 14:43 348 1 gusting 4 15.6
2014-Aug-26 14:33 007 1 gusting 4 15.6
2014-Aug-26 14:23 338 1 gusting 4 15.6
2014-Aug-26 14:13 336 2 gusting 4 15.6
2014-Aug-26 14:03 007 1 gusting 4 15.6
2014-Aug-26 13:53 348 1 gusting 5 15.6
2014-Aug-26 13:43 355 1 gusting 4 16.1
2014-Aug-26 13:33 005 1 gusting 4 16.1
2014-Aug-26 13:23 242 0 gusting 4 16.1
2014-Aug-26 13:13 328 1 gusting 2 15.6
2014-Aug-26 13:03 349 1 gusting 2 15.6
2014-Aug-26 12:53 333 1 gusting 4 15.6
2014-Aug-26 12:43 004 2 gusting 5 15.6
2014-Aug-26 12:33 356 1 gusting 2 15.6
2014-Aug-26 12:23 357 0 gusting 4 15.6
2014-Aug-26 12:13 279 0 gusting 2 15.6
2014-Aug-26 12:03 016 1 gusting 1 15.6
2014-Aug-26 11:53 304 1 gusting 2 15.6
2014-Aug-26 11:43 014 0 gusting 2 15.6
2014-Aug-26 11:33 329 1 gusting 2 15.6
2014-Aug-26 11:23 017 1 gusting 2 15.6
2014-Aug-26 11:13 013 0 gusting 2 15.6
2014-Aug-26 11:03 319 0 gusting 4 15.0
2014-Aug-26 10:53 006 2 gusting 4 15.0
2014-Aug-26 10:43 202 0 gusting 2 15.0
2014-Aug-26 10:33 338 1 gusting 5 15.0
2014-Aug-26 10:23 340 0 gusting 1 15.0
2014-Aug-26 10:13 15.0
2014-Aug-26 10:03 346 0 gusting 4 14.4
2014-Aug-26 09:53 326 1 gusting 5 14.4
2014-Aug-26 09:43 349 2 gusting 5 15.0
2014-Aug-26 09:33 322 1 gusting 4 14.4
2014-Aug-26 09:23 147 0 gusting 1 14.4
2014-Aug-26 09:13 357 0 gusting 1 14.4
2014-Aug-26 09:03 344 1 gusting 4 14.4
2014-Aug-26 08:53 195 13.9
2014-Aug-26 08:43 354 0 gusting 2 13.9
2014-Aug-26 08:33 342 2 gusting 4 13.9
2014-Aug-26 08:23 331 13.9
2014-Aug-26 08:13 13.3
2014-Aug-26 08:03 348 0 gusting 0 13.9
2014-Aug-26 07:53 317 0 gusting 1 13.9
2014-Aug-26 07:43 027 0 gusting 1 13.3
2014-Aug-26 07:33 156 0 gusting 0 12.8
2014-Aug-26 07:23 022 1 gusting 1 12.8
2014-Aug-26 07:13 022 0 gusting 0 12.8
2014-Aug-26 07:03 022 12.8
2014-Aug-26 06:53 006 12.8
2014-Aug-26 06:43 022 0 gusting 0 12.2
2014-Aug-26 06:33 12.2
2014-Aug-26 06:23 12.2
2014-Aug-26 06:13 002 1 gusting 1 11.7
2014-Aug-26 06:03 351 0 gusting 1 11.7
2014-Aug-26 05:53 005 0 gusting 0 11.7
2014-Aug-26 05:43 022 0 gusting 1 11.7
2014-Aug-26 05:33 025 0 gusting 1 11.7
2014-Aug-26 05:23 11.1
2014-Aug-26 05:13 11.1
2014-Aug-26 05:03 045 0 gusting 1 11.1
2014-Aug-26 04:53 11.1
2014-Aug-26 04:43 10.6
2014-Aug-26 04:33 062 0 gusting 0 10.6
2014-Aug-26 04:23 10.0
2014-Aug-26 04:13 338 10.0
2014-Aug-26 04:03 338 10.0
2014-Aug-26 03:53 316 10.6
2014-Aug-26 03:43 270 0 gusting 0 10.6
2014-Aug-26 03:33 338 10.6
2014-Aug-26 03:23 338 10.6
2014-Aug-26 03:13 338 10.6
2014-Aug-26 03:03 10.6
2014-Aug-26 02:53 338 11.1
2014-Aug-26 02:43 338 11.1
2014-Aug-26 02:33 339 0 gusting 1 11.1
2014-Aug-26 02:23 11.1
2014-Aug-26 02:13 11.1
2014-Aug-26 02:03 11.1
2014-Aug-26 01:53 008 0 gusting 1 11.1
2014-Aug-26 01:43 11.7
2014-Aug-26 01:33 002 1 gusting 2 11.7
2014-Aug-26 01:23 11.7
2014-Aug-26 01:13 341 1 gusting 2 11.7
2014-Aug-26 01:03 359 1 gusting 2 11.7
2014-Aug-26 00:53 010 1 gusting 2 11.7
2014-Aug-26 00:43 014 0 gusting 1 11.7
2014-Aug-26 00:33 12.2
2014-Aug-26 00:23 003 2 gusting 4 12.2
2014-Aug-26 00:13 341 1 gusting 4 12.2
2014-Aug-26 00:03 331 1 gusting 5 12.2
2014-Aug-25 23:53 12.2
2014-Aug-25 23:43 342 1 gusting 4 12.2
2014-Aug-25 23:33 015 2 gusting 4 12.2
2014-Aug-25 23:23 335 1 gusting 5 12.2
2014-Aug-25 23:13 12.2
2014-Aug-25 23:03 342 1 gusting 4 12.2
2014-Aug-25 22:53 005 4 gusting 5 12.2
2014-Aug-25 22:43 006 4 gusting 6 12.2
2014-Aug-25 22:33 320 3 gusting 6 12.2
2014-Aug-25 22:23 003 2 gusting 5 12.2
2014-Aug-25 22:13 332 2 gusting 5 12.2
2014-Aug-25 22:03 153 2 gusting 4 12.2
2014-Aug-25 21:53 351 2 gusting 6 12.2
2014-Aug-25 21:43 352 2 gusting 5 12.8
2014-Aug-25 21:33 12.8
2014-Aug-25 21:23 002 3 gusting 6 12.8
2014-Aug-25 21:13 334 2 gusting 5 12.8
2014-Aug-25 21:03 335 3 gusting 5 12.8
2014-Aug-25 20:53 045 3 gusting 6 12.8
2014-Aug-25 20:43 348 5 gusting 8 12.8
2014-Aug-25 20:33 002 4 gusting 7 12.8
2014-Aug-25 20:23 338 7 gusting 8 12.8
2014-Aug-25 20:13 336 6 gusting 7 12.8
2014-Aug-25 20:03 358 5 gusting 7 12.8
2014-Aug-25 19:53 301 3 gusting 8 12.8
2014-Aug-25 19:43 002 5 gusting 7 13.3
2014-Aug-25 19:33 007 4 gusting 6 13.3
2014-Aug-25 19:23 358 4 gusting 6 13.3
2014-Aug-25 19:13 353 4 gusting 6 13.3
2014-Aug-25 19:03 347 4 gusting 6 13.3
2014-Aug-25 18:53 13.3
2014-Aug-25 18:43 13.9
2014-Aug-25 18:33 331 6 gusting 11 13.9
2014-Aug-25 18:23 330 6 gusting 7 13.9
2014-Aug-25 18:13 351 2 gusting 6 14.4
2014-Aug-25 18:03 344 4 gusting 6 14.4
2014-Aug-25 17:53 003 1 gusting 6 14.4
2014-Aug-25 17:43 315 6 gusting 6 15.0
2014-Aug-25 17:33 338 6 gusting 6 16.1
2014-Aug-25 17:23 300 1 gusting 6 17.2
2014-Aug-25 17:13 017 3 gusting 5 17.8
2014-Aug-25 17:03 202 2 gusting 4 16.7
2014-Aug-25 16:53 340 2 gusting 2 15.0
2014-Aug-25 16:43 328 1 gusting 6 15.0
2014-Aug-25 16:33 270 4 gusting 8 15.0
2014-Aug-25 16:23 299 2 gusting 6 15.0
2014-Aug-25 16:13 255 1 gusting 6 15.0
2014-Aug-25 16:03 012 1 gusting 6 15.6
2014-Aug-25 15:53 011 2 gusting 4 15.6
2014-Aug-25 15:43 14.4
2014-Aug-25 15:33 009 1 gusting 5 15.6
2014-Aug-25 15:23 266 2 gusting 5 15.6
2014-Aug-25 15:13 281 2 gusting 5 15.6
2014-Aug-25 15:03 296 2 gusting 5 15.6